Location: Sungai Jaoh
(2.9167°N, 113.9167°E)
Time: 07:49:41
(UTC+00:00)

Envisat - Pass Details

Date: 03 October 2021
Orbit: 764 x 766 km, 98.2° (Epoch: 25 October)

Event Time Altitude Azimuth Distance (km) Brightness Sun altitude
Rises 20:52:50 0° 20° (NNE) 3,214 6.4 -20.2°
Reaches altitude 10° 20:55:10 10° 24° (NNE) 2,290 5.7 -19.7°
Maximum altitude 21:00:06 56° 102° (ESE) 906 3.7 -18.4°
Drops below altitude 10° 21:05:03 10° 179° (S) 2,297 5.5 -17.2°
Sets 21:07:24 0° 184° (S) 3,225 6.2 -16.6°
